Location: Les Jeannots
(43.2262°N, 5.5774°E)
Time: 19:12:52
(UTC+00:00)

Elektron 1 - Pass Details

Date: 05 July 2020
Orbit: 405 x 6310 km, 60.8° (Epoch: 11 August)

Event Time Altitude Azimuth Distance (km) Brightness Sun altitude
Exits shadow 22:21:08 59° 251° (WSW) 566 4.3 -21.5°
Maximum altitude 22:21:38 75° 312° (NW) 531 4.2 -21.5°
Drops below altitude 10° 22:26:22 10° 39° (NE) 2,382 7.9 -21.8°
Sets 22:29:49 0° 41° (NE) 3,938 9.1 -22.0°
